Weather History for Fort Myers, FL

Change the Weather History Date:

Thursday, March 6, 2014

  Actual Average Record
Temperature  
Mean Temperature 71 °F 69 °F  
Max Temperature 74 °F 79 °F 92 °F (1944)
Min Temperature 67 °F 58 °F 42 °F (1960)
Degree Days  
Heating Degree Days 0 1  
Month to date heating degree days 0 6  
Since 1 July heating degree days 169 266  
Cooling Degree Days 6 5  
Month to date cooling degree days 36 30  
Year to date cooling degree days 297 215  
Growing Degree Days 20 (Base 50)    
Moisture  
Dew Point 67 °F    
Average Humidity 91    
Maximum Humidity 100    
Minimum Humidity 84    
Precipitation  
Precipitation 0.77 in 0.10 in 1.31 in (1940)
Month to date precipitation 0.77 0.52  
Year to date precipitation 4.21 4.61  
Sea Level Pressure  
Sea Level Pressure 29.86 in    
Wind  
Wind Speed 7 mph (South)    
Max Wind Speed 20 mph    
Max Gust Speed 24 mph    
Visibility 7 miles    
Events Fog , Rain , Thunderstorm    
T = Trace of Precipitation, MM = Missing Value Source: NWS Daily Summary

Daily Weather History Graph

Daily Weather History Graph

Search for Another Location

Airport:

Trip Planner

Search our weather history database for the weather conditions in past years. The results will help you decide how hot, cold, wet, or windy it might be!

Date:

Astronomy

Mar. 06, 2014 Rise Set
Actual Time 6:46 AM EST 6:31 PM EST
Civil Twilight 6:23 AM EST 6:54 PM EST
Nautical Twilight 5:56 AM EST 7:21 PM EST
Astronomical Twilight 5:29 AM EST 7:48 PM EST
Moon 10:24 AM EST (3/6) No Moon Set
Length of Visible Light 12h 31m
Length of Day
11h 45m
Waxing Crescent, 32% of the Moon is Illuminated
Mar 6
Waxing Crescent
Mar 8
First Quarter
Mar 16
Full
Mar 23
Last Quarter
Mar 30
New

Hourly Weather History & Observations

Time (EST) Temp. Dew Point Humidity Pressure Visibility Wind Dir Wind Speed Gust Speed Precip Events Conditions
12:53 AM 68.0 °F 64.9 °F 90% 30.00 in 9.0 mi ENE 5.8 mph - N/A   Clear
1:33 AM 68.0 °F 64.9 °F 90% 29.98 in 8.0 mi East 6.9 mph - N/A   Scattered Clouds
1:42 AM 68.0 °F 64.9 °F 90% 29.96 in 8.0 mi East 10.4 mph - N/A   Mostly Cloudy
1:53 AM 68.0 °F 64.9 °F 90% 29.97 in 8.0 mi East 10.4 mph - N/A   Overcast
2:53 AM 68.0 °F 66.0 °F 93% 29.94 in 8.0 mi ESE 6.9 mph - N/A   Overcast
3:53 AM 68.0 °F 66.0 °F 93% 29.91 in 6.0 mi ESE 8.1 mph - N/A   Overcast
4:24 AM 68.0 °F 66.0 °F 93% 29.89 in 6.0 mi SE 10.4 mph - N/A   Overcast
4:43 AM 68.0 °F 66.0 °F 93% 29.88 in 5.0 mi SE 8.1 mph - N/A   Overcast
4:53 AM 68.0 °F 66.0 °F 93% 29.89 in 5.0 mi ESE 6.9 mph - N/A   Overcast
5:24 AM 68.0 °F 66.0 °F 93% 29.90 in 6.0 mi ESE 5.8 mph - N/A   Overcast
5:53 AM 68.0 °F 66.0 °F 93% 29.90 in 5.0 mi East 5.8 mph - N/A   Overcast
6:53 AM 66.9 °F 66.0 °F 97% 29.90 in 2.0 mi ESE 4.6 mph - N/A   Overcast
7:27 AM 68.0 °F 66.9 °F 96% 29.91 in 3.0 mi Calm Calm - N/A   Overcast
7:53 AM 69.1 °F 66.9 °F 93% 29.90 in 5.0 mi East 6.9 mph - N/A   Overcast
8:08 AM 69.1 °F 66.9 °F 93% 29.90 in 7.0 mi ESE 5.8 mph - N/A   Overcast
8:53 AM 71.1 °F 66.9 °F 87% 29.91 in 10.0 mi SE 4.6 mph - N/A   Mostly Cloudy
9:20 AM 72.0 °F 66.9 °F 84% 29.91 in 10.0 mi SSE 6.9 mph - N/A   Overcast
9:53 AM 73.0 °F 68.0 °F 84% 29.91 in 10.0 mi SE 4.6 mph - N/A   Partly Cloudy
10:53 AM 73.9 °F 68.0 °F 82% 29.90 in 10.0 mi SE 5.8 mph - N/A   Clear
11:53 AM 73.9 °F 68.0 °F 82% 29.87 in 10.0 mi Calm Calm - N/A   Clear
12:30 PM 73.9 °F 69.1 °F 85% 29.86 in 7.0 mi NE 3.5 mph - 0.00 in Rain , Thunderstorm Light Rain
12:45 PM 73.0 °F 69.1 °F 87% 29.86 in 3.0 mi North 4.6 mph - 0.03 in Rain , Thunderstorm Light Thunderstorms and Rain
12:53 PM 72.0 °F 70.0 °F 93% 29.86 in 2.0 mi NNE 3.5 mph - 0.06 in Rain , Thunderstorm Thunderstorms and Rain
1:11 PM 71.1 °F 70.0 °F 96% 29.83 in 0.8 mi NNE 3.5 mph - 0.10 in Rain , Thunderstorm Heavy Thunderstorms and Rain
1:18 PM 69.1 °F 68.0 °F 96% 29.84 in 0.2 mi North - - 0.42 in Fog , Rain , Thunderstorm Heavy Thunderstorms and Rain
1:28 PM 66.0 °F 64.9 °F 96% 29.84 in 2.5 mi South 11.5 mph - 0.52 in Rain , Thunderstorm Light Thunderstorms and Rain
1:30 PM 66.9 °F 64.9 °F 93% 29.84 in 3.0 mi South 9.2 mph - 0.52 in Rain , Thunderstorm Light Thunderstorms and Rain
1:34 PM 66.9 °F 64.9 °F 93% 29.84 in 3.0 mi South 9.2 mph - 0.53 in Rain , Thunderstorm Light Rain
1:40 PM 66.9 °F 64.9 °F 93% 29.84 in 3.0 mi South 8.1 mph - 0.55 in Rain Light Rain
1:53 PM 68.0 °F 66.0 °F 93% 29.84 in 2.0 mi SSW 8.1 mph - 0.58 in Rain Rain
2:06 PM 69.1 °F 66.9 °F 93% 29.82 in 3.0 mi WSW 12.7 mph - 0.04 in Rain Light Rain
2:10 PM 69.1 °F 66.9 °F 93% 29.82 in 4.0 mi WSW 12.7 mph 24.2 mph 0.04 in Rain Light Rain
2:16 PM 69.1 °F 66.9 °F 93% 29.82 in 4.0 mi WSW 17.3 mph 24.2 mph 0.05 in Rain Light Rain
2:53 PM 68.0 °F 66.0 °F 93% 29.82 in 4.0 mi SW 5.8 mph - 0.10 in Rain Light Rain
3:40 PM 68.0 °F 66.0 °F 93% 29.77 in 7.0 mi SSW 5.8 mph - 0.02 in Rain Light Rain
3:49 PM 68.0 °F 66.2 °F 94% 29.77 in 7.0 mi SW 6.9 mph - 0.02 in Rain Light Rain
3:53 PM 68.0 °F 66.9 °F 96% 29.78 in 7.0 mi WSW 9.2 mph - 0.03 in Rain Light Rain
4:53 PM 69.1 °F 66.0 °F 90% 29.79 in 9.0 mi SW 9.2 mph - 0.00 in   Partly Cloudy
5:19 PM 68.0 °F 66.0 °F 93% 29.79 in 9.0 mi West 11.5 mph - N/A   Mostly Cloudy
5:53 PM 69.1 °F 66.0 °F 90% 29.81 in 9.0 mi WSW 10.4 mph - N/A   Mostly Cloudy
6:39 PM 69.1 °F 66.0 °F 90% 29.81 in 8.0 mi SW 6.9 mph - N/A   Overcast
6:53 PM 69.1 °F 66.0 °F 90% 29.82 in 10.0 mi SW 8.1 mph - N/A   Overcast
7:53 PM 70.0 °F 66.0 °F 87% 29.83 in 10.0 mi WSW 6.9 mph - N/A   Overcast
8:38 PM 69.1 °F 66.9 °F 93% 29.84 in 9.0 mi SW 4.6 mph - N/A   Overcast
8:51 PM 69.8 °F 66.2 °F 88% 29.84 in 9.0 mi West 6.9 mph - N/A   Overcast
8:53 PM 70.0 °F 66.9 °F 90% 29.85 in 9.0 mi West 5.8 mph - N/A   Overcast
9:32 PM 70.0 °F 68.0 °F 93% 29.84 in 10.0 mi SW 8.1 mph - N/A   Overcast
9:50 PM 71.6 °F 66.2 °F 83% 29.84 in 10.0 mi SW 9.2 mph - N/A   Overcast
9:53 PM 71.1 °F 66.9 °F 87% 29.85 in 10.0 mi SW 8.1 mph - N/A   Overcast
10:30 PM 71.1 °F 68.0 °F 90% 29.85 in 10.0 mi SW 9.2 mph - N/A   Mostly Cloudy
10:38 PM 71.1 °F 66.9 °F 87% 29.85 in 10.0 mi SW 9.2 mph - N/A   Overcast
10:50 PM 71.6 °F 66.2 °F 83% 29.84 in 10.0 mi SSW 10.4 mph - N/A   Overcast
10:53 PM 71.1 °F 66.9 °F 87% 29.85 in 10.0 mi SW 8.1 mph - N/A   Overcast
11:04 PM 71.1 °F 66.9 °F 87% 29.84 in 10.0 mi SW 9.2 mph - N/A   Mostly Cloudy
11:53 PM 71.1 °F 66.9 °F 87% 29.83 in 10.0 mi WSW 9.2 mph - N/A   Mostly Cloudy